STARLINK-1807 (46706 NORAD) Tracking and Keplerian Element Data

This shows tracking and keplerian element data for the satellite.

Feedback or suggestion? Click here.




ElementValue
Catalog46706
NameSTARLINK-1807
Epoch Orbit736
Epoch Day336.25001157
Epoch Year2020
RAAN254.2519
Inclination53.0557
Eccentricity0.0001394
Argument of Perigee48.2742
Mean Anonmoly243.606
Mean Motion15.62707228
Decay Rate7.665E-05
L11 46706U 20073AN 20336.25001157 .00007665 00000-0 89627-4 0 9990
L22 46706 53.0557 254.2519 0001394 48.2742 243.6060 15.62707228 7369

Live tracking and technical data element details for STARLINK-1807 (NORAD 46706). STARLINK-1807 can be tracked NOW for your location showing map with azimuth and elevation plus other details from your city location.

Track the satellite on the map from your city or location and see movement details for azimuth, elevation, latitude, longitude, range, height, and movement on the map or in text.







IsCatalogInMostPopularTable: catalog: 46706, numindb: 13
Update: records affected: 1



GetName: 46706 STARLINK-1807

Hit Count: updated at: Wed, 02 Dec 2020 06:51:29 GMT